Weather History for KLUK - November, 2012

Change the Weather History Date:

Wednesday, November 7, 2012

  Actual Average Record
Temperature  
Mean Temperature 46 °F -  
Max Temperature 55 °F 55 °F 75 °F (1996)
Min Temperature 34 °F 37 °F 22 °F (1971)
Degree Days  
Heating Degree Days 19    
Moisture  
Dew Point 33 °F    
Average Humidity 65    
Maximum Humidity 92    
Minimum Humidity 38    
Precipitation  
Precipitation 0.00 in - - ()
Sea Level Pressure  
Sea Level Pressure 30.00 in    
Wind  
Wind Speed 2 mph (NNW)    
Max Wind Speed 10 mph    
Max Gust Speed 16 mph    
Visibility 9 miles    
Events      
Averages and records for this station are not official NWS values.
T = Trace of Precipitation, MM = Missing Value Source: NWS Daily Summary

Daily Weather History Graph

Daily Weather History Graph

Search for Another Location

Airport or City:

Trip Planner

Search our weather history database for the weather conditions in past years. The results will help you decide how hot, cold, wet, or windy it might be!

Date:

Astronomy

Nov. 07, 2012 Rise Set
Actual Time 7:12 AM EST 5:29 PM EST
Civil Twilight 6:44 AM EST 5:57 PM EST
Nautical Twilight 6:12 AM EST 6:29 PM EST
Astronomical Twilight 5:41 AM EST 7:01 PM EST
Moon 12:08 AM EST (11/7) 1:35 PM EST (11/7)
Length of Visible Light 11h 13m
Length of Day
10h 17m
Last Quarter, 43% of the Moon is Illuminated
Nov 7
Last Quarter
Nov 13
New
Nov 20
First Quarter
Nov 28
Full
Dec 6
Last Quarter

Hourly Weather History & Observations

Time (EST) Temp. Windchill Dew Point Humidity Pressure Visibility Wind Dir Wind Speed Gust Speed Precip Events Conditions
12:53 AM 42.1 °F - 36.0 °F 79% 29.92 in 10.0 mi Calm Calm - N/A   Overcast
1:53 AM 42.1 °F - 35.1 °F 76% 29.92 in 10.0 mi Calm Calm - N/A   Overcast
2:53 AM 41.0 °F - 36.0 °F 82% 29.91 in 10.0 mi Calm Calm - N/A   Overcast
3:53 AM 41.0 °F - 35.1 °F 79% 29.91 in 10.0 mi Calm Calm - N/A   Overcast
4:53 AM 39.9 °F - 35.1 °F 83% 29.91 in 10.0 mi Calm Calm - N/A   Overcast
5:53 AM 39.9 °F - 35.1 °F 83% 29.93 in 10.0 mi Calm Calm - N/A   Overcast
6:53 AM 37.9 °F - 34.0 °F 86% 29.94 in 10.0 mi Calm Calm - N/A   Clear
7:53 AM 39.0 °F - 33.1 °F 79% 29.96 in 9.0 mi Calm Calm - N/A   Overcast
8:53 AM 42.1 °F - 32.0 °F 67% 29.97 in 10.0 mi Calm Calm - N/A   Partly Cloudy
9:53 AM 48.0 °F - 33.1 °F 56% 29.97 in 10.0 mi Variable 3.5 mph - N/A   Mostly Cloudy
10:53 AM 50.0 °F - 30.0 °F 46% 29.99 in 10.0 mi North 9.2 mph - N/A   Overcast
11:53 AM 53.1 °F - 30.9 °F 43% 29.99 in 10.0 mi Variable 6.9 mph - N/A   Clear
12:53 PM 54.0 °F - 30.9 °F 41% 29.97 in 10.0 mi North 9.2 mph - N/A   Clear
1:53 PM 54.0 °F - 32.0 °F 43% 29.96 in 10.0 mi Variable 4.6 mph - N/A   Clear
2:53 PM 55.0 °F - 30.9 °F 40% 29.97 in 10.0 mi NNW 6.9 mph 16.1 mph N/A   Clear
3:53 PM 55.0 °F - 30.0 °F 38% 29.98 in 10.0 mi NNW 6.9 mph - N/A   Clear
4:53 PM 53.1 °F - 30.0 °F 41% 30.01 in 10.0 mi NNW 10.4 mph - N/A   Clear
5:53 PM 50.0 °F - 30.0 °F 46% 30.03 in 10.0 mi NNW 6.9 mph - N/A   Clear
6:53 PM 48.0 °F - 33.1 °F 56% 30.07 in 10.0 mi North 10.4 mph - N/A   Clear
7:53 PM 45.0 °F 41.2 °F 35.1 °F 68% 30.09 in 8.0 mi NNE 6.9 mph - N/A   Clear
8:53 PM 43.0 °F - 34.0 °F 71% 30.11 in 7.0 mi Calm Calm - N/A   Clear
9:53 PM 37.9 °F - 33.1 °F 83% 30.13 in 6.0 mi Calm Calm - N/A   Haze
10:53 PM 37.0 °F - 33.1 °F 86% 30.14 in 5.0 mi Calm Calm - N/A   Clear
11:53 PM 34.0 °F - 32.0 °F 92% 30.14 in 3.0 mi Calm Calm - N/A   Clear